Location: Six Mile Lake
(44.9000°N, 79.7170°W)
Time: 23:24:59
(UTC-04:00)

BEESAT - Pass Details

Date: 28 June 2022
Orbit: 700 x 706 km, 98.6° (Epoch: 11 August)

Event Time Altitude Azimuth Distance (km) Brightness Sun altitude
Rises 22:18:13 0° 8° (N) 3,103 ? -10.0°
Reaches altitude 10° 22:20:32 10° 3° (N) 2,181 ? -10.3°
Maximum altitude 22:25:07 48° 290° (WNW) 915 ? -10.8°
Drops below altitude 10° 22:29:41 10° 216° (SW) 2,170 ? -11.3°
Sets 22:31:59 0° 211° (SSW) 3,085 ? -11.6°
